WON1334 WAFO-WAFF

Flight info

Callsign WON1334
Flight time 0h 49m
Altitude 16000
Route RIKMU DCT OMDEG
Aircraft AT76/M-SDFGIRY/S

Departure

Time 2026-05-06 09:21
Airport Maleo Airport (WAFO)

Arrival

Time 2026-05-06 10:10
Airport Mutiara - SIS Al-Jufrie Airport (WAFF)
Time Latitude Longitude Altitude Speed Heading
2026-05-06 09:09 -2.20308 121.66439 12 ft 0 kts 138°
2026-05-06 09:15 -2.20302 121.66433 14 ft 2 kts 142°
2026-05-06 09:15 -2.20292 121.66425 16 ft 2 kts 144°
2026-05-06 09:15 -2.20283 121.66419 15 ft 1 kts 128°
2026-05-06 09:15 -2.20279 121.66413 17 ft 1 kts 107°
2026-05-06 09:16 -2.20278 121.66407 17 ft 1 kts 98°
2026-05-06 09:16 -2.20277 121.66402 17 ft 1 kts 94°
2026-05-06 09:16 -2.20277 121.66401 17 ft 1 kts 92°
2026-05-06 09:16 -2.20275 121.66405 17 ft 0 kts 58°
2026-05-06 09:17 -2.20264 121.66416 14 ft 4 kts 46°
2026-05-06 09:17 -2.20241 121.66440 13 ft 6 kts 44°
2026-05-06 09:17 -2.20198 121.66446 13 ft 8 kts 331°
2026-05-06 09:17 -2.20153 121.66409 15 ft 9 kts 319°
2026-05-06 09:18 -2.20101 121.66364 15 ft 10 kts 319°
2026-05-06 09:18 -2.20085 121.66320 15 ft 6 kts 233°
2026-05-06 09:18 -2.20131 121.66268 15 ft 14 kts 229°
2026-05-06 09:18 -2.20204 121.66185 14 ft 22 kts 229°
2026-05-06 09:19 -2.20333 121.66040 13 ft 33 kts 228°
2026-05-06 09:19 -2.20482 121.65874 12 ft 15 kts 225°
2026-05-06 09:19 -2.20543 121.65825 14 ft 1 kts 271°
2026-05-06 09:19 -2.20534 121.65821 12 ft 2 kts 342°
2026-05-06 09:20 -2.20520 121.65830 13 ft 1 kts 47°
2026-05-06 09:20 -2.20472 121.65885 12 ft 34 kts 48°
2026-05-06 09:20 -2.20180 121.66212 15 ft 92 kts 49°
2026-05-06 09:20 -2.19641 121.66815 113 ft 131 kts 47°
2026-05-06 09:21 -2.19018 121.67488 683 ft 132 kts 47°
2026-05-06 09:21 -2.18351 121.68202 1096 ft 144 kts 46°
2026-05-06 09:21 -2.17648 121.68913 1448 ft 147 kts 37°
2026-05-06 09:21 -2.16664 121.69127 1740 ft 158 kts 346°
2026-05-06 09:22 -2.15935 121.68256 1638 ft 184 kts 285°
2026-05-06 09:22 -2.15408 121.67125 1932 ft 182 kts 317°
2026-05-06 09:22 -2.14474 121.66255 2208 ft 186 kts 314°
2026-05-06 09:22 -2.13613 121.65283 2575 ft 187 kts 311°
2026-05-06 09:23 -2.12750 121.64296 2939 ft 188 kts 313°
2026-05-06 09:23 -2.11861 121.63330 3299 ft 189 kts 314°
2026-05-06 09:23 -2.10945 121.62382 3677 ft 190 kts 315°
2026-05-06 09:23 -2.10018 121.61434 4036 ft 191 kts 315°
2026-05-06 09:24 -2.09400 121.60803 4277 ft 192 kts 314°
2026-05-06 09:24 -2.08147 121.59516 4759 ft 194 kts 314°
2026-05-06 09:24 -2.07521 121.58876 4989 ft 195 kts 314°
2026-05-06 09:24 -2.06575 121.57905 5331 ft 196 kts 314°
2026-05-06 09:25 -2.05622 121.56927 5678 ft 197 kts 314°
2026-05-06 09:25 -2.04665 121.55945 6046 ft 198 kts 315°
2026-05-06 09:25 -2.03701 121.54955 6618 ft 198 kts 314°
2026-05-06 09:25 -2.02736 121.53963 6980 ft 200 kts 314°
2026-05-06 09:26 -2.01760 121.52962 7340 ft 202 kts 314°
2026-05-06 09:26 -2.00774 121.51952 7694 ft 203 kts 314°
2026-05-06 09:26 -1.99784 121.50936 8051 ft 204 kts 314°
2026-05-06 09:26 -1.98791 121.49914 8411 ft 205 kts 314°
2026-05-06 09:27 -1.97789 121.48885 8762 ft 207 kts 314°
2026-05-06 09:27 -1.96784 121.47850 9123 ft 208 kts 314°
2026-05-06 09:27 -1.95769 121.46812 9462 ft 210 kts 314°
2026-05-06 09:27 -1.94750 121.45763 9815 ft 211 kts 314°
2026-05-06 09:28 -1.93722 121.44709 10128 ft 212 kts 314°
2026-05-06 09:28 -1.92692 121.43655 10433 ft 212 kts 314°
2026-05-06 09:28 -1.91659 121.42595 10739 ft 213 kts 314°
2026-05-06 09:28 -1.90637 121.41542 11045 ft 214 kts 314°
2026-05-06 09:29 -1.89594 121.40474 11358 ft 215 kts 314°
2026-05-06 09:29 -1.88547 121.39399 11667 ft 216 kts 314°
2026-05-06 09:29 -1.87496 121.38320 11970 ft 217 kts 314°
2026-05-06 09:29 -1.86441 121.37235 12283 ft 218 kts 314°
2026-05-06 09:30 -1.85379 121.36147 12592 ft 219 kts 314°
2026-05-06 09:30 -1.84313 121.35057 12888 ft 220 kts 314°
2026-05-06 09:30 -1.83247 121.33957 13191 ft 221 kts 314°
2026-05-06 09:30 -1.82172 121.32856 13486 ft 222 kts 314°
2026-05-06 09:31 -1.81093 121.31747 13760 ft 223 kts 314°
2026-05-06 09:31 -1.80011 121.30636 14010 ft 224 kts 314°
2026-05-06 09:31 -1.78923 121.29519 14271 ft 224 kts 314°
2026-05-06 09:31 -1.77845 121.28414 14524 ft 225 kts 314°
2026-05-06 09:32 -1.76748 121.27287 14776 ft 226 kts 314°
2026-05-06 09:32 -1.75651 121.26161 15031 ft 227 kts 314°
2026-05-06 09:32 -1.74548 121.25030 15275 ft 228 kts 314°
2026-05-06 09:32 -1.73442 121.23893 15516 ft 228 kts 314°
2026-05-06 09:33 -1.72331 121.22755 15749 ft 229 kts 314°
2026-05-06 09:33 -1.71217 121.21616 15987 ft 229 kts 314°
2026-05-06 09:33 -1.70100 121.20473 16218 ft 231 kts 314°
2026-05-06 09:33 -1.68960 121.19301 16315 ft 239 kts 314°
2026-05-06 09:34 -1.67777 121.18088 16357 ft 247 kts 314°
2026-05-06 09:34 -1.66556 121.16835 16378 ft 256 kts 314°
2026-05-06 09:34 -1.65298 121.15544 16391 ft 263 kts 314°
2026-05-06 09:34 -1.64008 121.14220 16400 ft 269 kts 315°
2026-05-06 09:35 -1.62690 121.12868 16403 ft 274 kts 315°
2026-05-06 09:35 -1.61347 121.11490 16399 ft 279 kts 315°
2026-05-06 09:35 -1.59986 121.10092 16399 ft 282 kts 315°
2026-05-06 09:35 -1.58622 121.08692 16395 ft 285 kts 315°
2026-05-06 09:36 -1.57232 121.07267 16391 ft 287 kts 315°
2026-05-06 09:36 -1.55835 121.05834 16392 ft 289 kts 315°
2026-05-06 09:36 -1.54429 121.04392 16390 ft 290 kts 315°
2026-05-06 09:36 -1.53023 121.02948 16389 ft 291 kts 315°
2026-05-06 09:37 -1.51606 121.01497 16388 ft 292 kts 315°
2026-05-06 09:37 -1.50188 121.00042 16386 ft 293 kts 315°
2026-05-06 09:37 -1.48767 120.98583 16382 ft 293 kts 315°
2026-05-06 09:37 -1.47341 120.97119 16374 ft 293 kts 315°
2026-05-06 09:38 -1.45916 120.95658 16380 ft 293 kts 315°
2026-05-06 09:38 -1.44492 120.94199 16376 ft 293 kts 315°
2026-05-06 09:38 -1.43066 120.92738 16376 ft 294 kts 315°
2026-05-06 09:38 -1.41639 120.91274 16374 ft 294 kts 314°
2026-05-06 09:39 -1.40213 120.89812 16368 ft 294 kts 315°
2026-05-06 09:39 -1.38788 120.88350 16368 ft 293 kts 314°
2026-05-06 09:39 -1.37382 120.86910 16369 ft 293 kts 314°
2026-05-06 09:39 -1.35956 120.85453 16367 ft 293 kts 314°
2026-05-06 09:40 -1.34536 120.83999 16366 ft 292 kts 314°
2026-05-06 09:40 -1.33118 120.82546 16362 ft 292 kts 314°
2026-05-06 09:40 -1.30282 120.79637 16361 ft 292 kts 314°
2026-05-06 09:41 -1.28865 120.78184 16361 ft 292 kts 314°
2026-05-06 09:41 -1.27446 120.76730 16361 ft 292 kts 314°
2026-05-06 09:41 -1.26031 120.75277 16364 ft 292 kts 314°
2026-05-06 09:41 -1.24615 120.73826 16363 ft 292 kts 314°
2026-05-06 09:42 -1.23196 120.72372 16360 ft 292 kts 314°
2026-05-06 09:42 -1.21780 120.70919 16358 ft 292 kts 314°
2026-05-06 09:42 -1.20364 120.69467 16356 ft 292 kts 314°
2026-05-06 09:42 -1.18966 120.68032 16356 ft 292 kts 314°
2026-05-06 09:43 -1.17548 120.66578 16355 ft 292 kts 314°
2026-05-06 09:43 -1.16131 120.65125 16358 ft 292 kts 314°
2026-05-06 09:43 -1.14713 120.63671 16352 ft 292 kts 314°
2026-05-06 09:43 -1.13296 120.62220 16354 ft 292 kts 314°
2026-05-06 09:44 -1.11877 120.60767 16352 ft 292 kts 314°
2026-05-06 09:44 -1.10460 120.59314 16353 ft 292 kts 314°
2026-05-06 09:44 -1.09043 120.57861 16356 ft 291 kts 314°
2026-05-06 09:44 -1.07628 120.56409 16353 ft 291 kts 314°
2026-05-06 09:45 -1.06231 120.54978 16354 ft 291 kts 314°
2026-05-06 09:45 -1.04814 120.53525 16352 ft 291 kts 314°
2026-05-06 09:45 -1.03402 120.52076 16354 ft 291 kts 314°
2026-05-06 09:45 -1.01987 120.50626 16355 ft 291 kts 314°
2026-05-06 09:46 -1.00571 120.49175 16355 ft 291 kts 314°
2026-05-06 09:46 -0.99160 120.47728 16349 ft 291 kts 314°
2026-05-06 09:46 -0.97745 120.46277 16353 ft 291 kts 314°
2026-05-06 09:46 -0.96332 120.44828 16351 ft 291 kts 314°
2026-05-06 09:47 -0.94918 120.43378 16351 ft 291 kts 314°
2026-05-06 09:47 -0.93508 120.41932 16351 ft 291 kts 314°
2026-05-06 09:47 -0.92114 120.40504 16352 ft 291 kts 314°
2026-05-06 09:47 -0.90703 120.39051 16350 ft 290 kts 313°
2026-05-06 09:48 -0.89669 120.37347 16353 ft 288 kts 288°
2026-05-06 09:48 -0.89244 120.35389 16353 ft 289 kts 276°
2026-05-06 09:48 -0.89163 120.33388 16354 ft 288 kts 269°
2026-05-06 09:48 -0.89210 120.31384 16356 ft 288 kts 268°
2026-05-06 09:49 -0.89247 120.29378 16358 ft 289 kts 269°
2026-05-06 09:49 -0.89231 120.27371 16362 ft 289 kts 271°
2026-05-06 09:49 -0.89181 120.25357 16362 ft 290 kts 271°
2026-05-06 09:49 -0.89139 120.23345 16361 ft 290 kts 270°
2026-05-06 09:50 -0.89102 120.21328 16365 ft 290 kts 271°
2026-05-06 09:50 -0.89069 120.19338 16364 ft 290 kts 271°
2026-05-06 09:50 -0.89031 120.17321 16365 ft 290 kts 270°
2026-05-06 09:50 -0.88996 120.15303 16369 ft 291 kts 271°
2026-05-06 09:51 -0.88959 120.13280 16367 ft 291 kts 271°
2026-05-06 09:51 -0.88922 120.11257 16367 ft 291 kts 270°
2026-05-06 09:51 -0.88886 120.09234 16369 ft 291 kts 271°
2026-05-06 09:51 -0.88852 120.07207 16374 ft 291 kts 271°
2026-05-06 09:52 -0.88812 120.05175 16369 ft 292 kts 270°
2026-05-06 09:52 -0.88778 120.03152 16379 ft 292 kts 271°
2026-05-06 09:52 -0.88742 120.01122 16370 ft 292 kts 271°
2026-05-06 09:52 -0.88703 119.99123 16374 ft 292 kts 271°
2026-05-06 09:53 -0.88670 119.97062 16227 ft 297 kts 271°
2026-05-06 09:53 -0.88626 119.94981 15818 ft 300 kts 271°
2026-05-06 09:53 -0.88594 119.92928 15421 ft 298 kts 271°
2026-05-06 09:53 -0.88426 119.90887 15021 ft 293 kts 286°
2026-05-06 09:54 -0.87416 119.89143 14631 ft 292 kts 315°
2026-05-06 09:54 -0.85740 119.88033 14240 ft 290 kts 335°
2026-05-06 09:54 -0.83879 119.87255 13856 ft 290 kts 339°
2026-05-06 09:54 -0.81999 119.86526 13449 ft 290 kts 339°
2026-05-06 09:55 -0.80129 119.85774 13022 ft 290 kts 338°
2026-05-06 09:55 -0.78282 119.84969 12594 ft 289 kts 336°
2026-05-06 09:55 -0.76443 119.84143 12170 ft 289 kts 336°
2026-05-06 09:55 -0.74615 119.83313 11758 ft 287 kts 336°
2026-05-06 09:56 -0.72832 119.82503 11393 ft 283 kts 336°
2026-05-06 09:56 -0.71059 119.81703 11100 ft 277 kts 336°
2026-05-06 09:56 -0.69315 119.80926 10820 ft 272 kts 336°
2026-05-06 09:56 -0.67599 119.80164 10540 ft 268 kts 336°
2026-05-06 09:57 -0.65909 119.79413 10267 ft 264 kts 336°
2026-05-06 09:57 -0.64253 119.78678 10141 ft 256 kts 336°
2026-05-06 09:57 -0.62650 119.77967 10003 ft 250 kts 336°
2026-05-06 09:57 -0.61052 119.77258 9725 ft 252 kts 336°
2026-05-06 09:58 -0.59450 119.76544 9436 ft 251 kts 336°
2026-05-06 09:58 -0.57855 119.75836 9165 ft 251 kts 336°
2026-05-06 09:58 -0.56268 119.75127 8928 ft 249 kts 336°
2026-05-06 09:58 -0.54690 119.74415 8682 ft 247 kts 336°
2026-05-06 09:59 -0.53367 119.73377 8431 ft 245 kts 304°
2026-05-06 09:59 -0.52768 119.71802 8205 ft 241 kts 283°
2026-05-06 09:59 -0.52467 119.70193 8095 ft 236 kts 278°
2026-05-06 09:59 -0.52343 119.68581 8037 ft 232 kts 263°
2026-05-06 10:00 -0.53013 119.67130 8018 ft 237 kts 225°
2026-05-06 10:00 -0.54447 119.66336 8011 ft 241 kts 190°
2026-05-06 10:00 -0.56094 119.66508 8001 ft 243 kts 156°
2026-05-06 10:00 -0.57361 119.67588 7993 ft 239 kts 122°
2026-05-06 10:01 -0.57823 119.69133 7994 ft 229 kts 96°
2026-05-06 10:01 -0.57928 119.70695 7999 ft 223 kts 92°
2026-05-06 10:01 -0.58101 119.72198 7988 ft 215 kts 111°
2026-05-06 10:01 -0.58892 119.73454 8004 ft 213 kts 125°
2026-05-06 10:02 -0.59750 119.74686 7817 ft 218 kts 126°
2026-05-06 10:02 -0.60670 119.75819 7505 ft 205 kts 131°
2026-05-06 10:02 -0.61647 119.76879 7195 ft 209 kts 135°
2026-05-06 10:02 -0.62762 119.77828 6901 ft 212 kts 143°
2026-05-06 10:03 -0.64000 119.78633 6596 ft 208 kts 150°
2026-05-06 10:03 -0.65293 119.79281 6300 ft 211 kts 155°
2026-05-06 10:03 -0.66648 119.79869 5986 ft 209 kts 156°
2026-05-06 10:03 -0.67952 119.80418 5663 ft 198 kts 156°
2026-05-06 10:04 -0.69180 119.80951 5352 ft 191 kts 155°
2026-05-06 10:04 -0.70387 119.81484 5036 ft 188 kts 155°
2026-05-06 10:04 -0.71575 119.82009 4726 ft 186 kts 155°
2026-05-06 10:04 -0.72753 119.82536 4420 ft 188 kts 155°
2026-05-06 10:05 -0.73957 119.83070 4098 ft 187 kts 156°
2026-05-06 10:05 -0.75155 119.83596 3787 ft 189 kts 155°
2026-05-06 10:05 -0.76377 119.84136 3471 ft 190 kts 155°
2026-05-06 10:05 -0.77551 119.84654 3179 ft 179 kts 155°
2026-05-06 10:06 -0.78663 119.85149 2906 ft 171 kts 155°
2026-05-06 10:06 -0.79740 119.85624 2639 ft 169 kts 156°
2026-05-06 10:06 -0.80795 119.86092 2369 ft 163 kts 156°
2026-05-06 10:06 -0.81804 119.86549 2103 ft 156 kts 156°
2026-05-06 10:07 -0.82751 119.86975 1854 ft 140 kts 156°
2026-05-06 10:07 -0.83592 119.87344 1670 ft 126 kts 157°
2026-05-06 10:07 -0.84385 119.87640 1473 ft 120 kts 161°
2026-05-06 10:07 -0.85163 119.87928 1369 ft 117 kts 157°
2026-05-06 10:08 -0.85915 119.88247 1228 ft 117 kts 155°
2026-05-06 10:08 -0.86667 119.88597 1089 ft 120 kts 154°
2026-05-06 10:08 -0.87425 119.88950 896 ft 121 kts 156°
2026-05-06 10:08 -0.88168 119.89291 778 ft 115 kts 155°
2026-05-06 10:09 -0.88899 119.89622 675 ft 116 kts 156°
2026-05-06 10:09 -0.89639 119.89959 518 ft 117 kts 155°
2026-05-06 10:09 -0.90368 119.90289 347 ft 113 kts 156°
2026-05-06 10:09 -0.91081 119.90615 240 ft 106 kts 155°
2026-05-06 10:10 -0.91573 119.90838 241 ft 21 kts 155°
2026-05-06 10:10 -0.91598 119.90846 239 ft 4 kts 191°
2026-05-06 10:10 -0.91638 119.90771 241 ft 15 kts 245°
2026-05-06 10:10 -0.91680 119.90703 231 ft 2 kts 193°
2026-05-06 10:11 -0.91711 119.90715 233 ft 9 kts 158°
2026-05-06 10:11 -0.91747 119.90727 233 ft 0 kts 180°
2026-05-06 10:11 -0.91750 119.90723 233 ft 0 kts 223°
2026-05-06 10:11 -0.91754 119.90711 232 ft 8 kts 247°
2026-05-06 10:12 -0.91766 119.90684 240 ft 7 kts 246°
2026-05-06 10:12 -0.91769 119.90678 240 ft 0 kts 246°